Hourly Data Report for January 19, 2021

CARBERRY CS
MANITOBA
Current Station Operator: ECCC - MSC

49°54'20.900" N
99°21'26.800" W
383.50 m
5010547
71170
WZE

Download Data

Hourly Data (January 2021)
Hourly Data Report for January 19, 2021
TIME
LST
Temp Definition
°C
Dew Point Definition
°C
Rel Hum Definition
%
Precip. Amount Definition
mm

Wind Dir Definition
10's deg

Wind Spd Definition
km/h
Visibility Definition
km
Stn Press Definition
kPa
Hmdx Definition


Wind Chill Definition


Weather Definition


00:00 -15.7 -17.9 83 0.2 4 15   97.29   -24 LegendNANA
01:00 -16.5 -19.0 81 0.2 4 14   97.42   -24 LegendNANA
02:00 -17.0 -19.5 81 0.0 3 14   97.52   -25 LegendNANA
03:00 -17.5 -20.1 80 0.0 2 15   97.63   -26 LegendNANA
04:00 -17.8 -20.6 79 0.2 1 15   97.74   -26 LegendNANA
05:00 -18.2 -21.1 78 0.0 1 14   97.77   -27 LegendNANA
06:00 -19.8 -22.5 79 0.0 35 9   97.84   -27 LegendNANA
07:00 -20.8 -23.0 82 0.0 34 8   97.97   -27 LegendNANA
08:00 -25.2 -27.4 81 0.0 33 5   98.00   -30 LegendNANA
09:00 -24.7 -27.3 79 0.2 31 5   98.04   -30 LegendNANA
10:00 -24.3 -27.3 77 0.0 28 3   98.01   -27 LegendNANA
11:00 -20.0 -23.5 74 0.0 24 3   97.99   -23 LegendNANA
12:00 -18.7 -24.0 63 0.0 27 3   97.95   -21 LegendNANA
13:00 -17.2 -22.1 66 0.0 26 16   97.81   -26 LegendNANA
14:00 -16.6 -21.0 69 0.0 24 16   97.66   -25 LegendNANA
15:00 -16.1 -20.3 70 0.0 23 11   97.51   -23 LegendNANA
16:00 -16.4 -20.2 73 0.0 19 16   97.38   -25 LegendNANA
17:00 -16.3 -19.6 76 0.0 19 15   97.19   -25 LegendNANA
18:00 -15.2 -18.1 78 0.0 19 18   97.04   -24 LegendNANA
19:00 -14.2 -17.3 77 0.0 17 21   96.75   -23 LegendNANA
20:00 -13.1 -16.1 78 0.0 19 21   96.55   -22 LegendNANA
21:00 -11.3 -14.0 80 0.0 18 24   96.31   -20 LegendNANA
22:00 -9.3 -11.9 81 0.0 18 18   96.10   -17 LegendNANA
23:00 -6.1 -8.7 82 0.0 18 24   95.77   -14 LegendNANA

Notes on Data Quality.

Legend

  • E = Estimated
  • M = Missing
  • NA = Not Available*
  • [empty] = Indicates an unobserved value
Date modified: